EW4329 Weather Reports


time (UTC)temp
F
wind
direction
speed
knots
gust
knots
rain 1hr
in
rain 24hr
in
rain mn
in
humidity
%
barometer
mb
20260505121507 28 81 0.0 1.7 0.00 0.00 0.00 79 1016.2
20260505120006 28 64 0.9 2.6 0.00 0.00 0.00 80 1016.0
20260505114504 28 64 0.9 3.5 0.00 0.00 0.00 80 1016.0
20260505113003 28 81 1.7 2.6 0.00 0.00 0.00 79 1015.9
20260505111503 28 82 0.0 3.5 0.00 0.00 0.00 78 1015.9
20260505110116 29 62 0.9 4.3 0.00 0.00 0.00 77 1015.7
20260505101602 28 66 1.7 5.2 0.00 0.00 0.00 78 1015.5
20260505100056 29 47 3.5 7.0 0.00 0.00 0.00 76 1015.2
20260505094555 30 34 5.2 7.8 0.00 0.00 0.00 75 1015.2
20260505093052 29 53 4.3 6.1 0.00 0.00 0.00 77 1015.2
20260505091555 29 60 3.5 6.1 0.00 0.00 0.00 78 1015.3
20260505090048 29 39 4.3 8.7 0.00 0.00 0.00 77 1015.1
20260505084553 29 58 4.3 6.1 0.00 0.00 0.00 76 1015.5
20260505083055 29 74 2.6 4.3 0.00 0.00 0.00 76 1015.4
20260505081540 30 88 3.5 6.1 0.00 0.00 0.00 75 1015.3
20260505080038 30 108 2.6 7.0 0.00 0.00 0.00 74 1015.3
20260505074535 29 68 0.0 1.7 0.00 0.00 0.00 77 1015.2
20260505073032 30 117 0.0 0.9 0.00 0.00 0.00 76 1015.3
20260505071528 31 118 0.0 2.6 0.00 0.00 0.00 73 1015.2
20260505070024 32 71 1.7 2.6 0.00 0.00 0.00 72 1015.1
20260505064529 33 69 0.0 2.6 0.00 0.00 0.00 69 1015.1
20260505063016 34 60 1.7 3.5 0.00 0.00 0.00 67 1015.1
20260505061513 35 73 1.7 2.6 0.00 0.00 0.00 67 1015.0
20260505060012 36 76 0.9 1.7 0.00 0.00 0.00 64 1015.0
20260505054516 36 91 0.9 2.6 0.00 0.00 0.00 64 1014.8
20260505053005 37 56 1.7 2.6 0.00 0.00 0.00 64 1014.9
20260505051504 38 61 0.9 2.6 0.00 0.00 0.00 62 1014.8
20260505050109 38 68 0.9 2.6 0.00 0.00 0.00 58 1014.9
20260505041607 39 129 0.9 2.6 0.00 0.00 0.00 54 1014.6
20260505034609 40 101 1.7 7.0 0.00 0.00 0.00 51 1014.5
20260505033054 41 131 1.7 5.2 0.00 0.00 0.00 50 1014.3
20260505031552 41 343 0.0 5.2 0.00 0.00 0.00 50 1014.0
20260505030059 42 60 2.6 6.1 0.00 0.00 0.00 50 1013.5
20260505024549 42 62 4.3 8.7 0.00 0.00 0.00 49 1013.3
20260505023045 43 17 0.9 5.2 0.00 0.00 0.00 50 1013.1
20260505021542 43 40 5.2 17.4 0.00 0.00 0.00 51 1012.8
20260505020053 44 16 3.5 12.2 0.00 0.00 0.00 53 1012.6
20260505014541 44 68 5.2 16.5 0.00 0.00 0.00 52 1012.5
20260505013041 45 68 4.3 14.8 0.00 0.00 0.00 55 1012.4
20260505011537 45 13 5.2 14.8 0.00 0.00 0.00 56 1012.3
20260505010043 45 45 7.8 14.8 0.00 0.00 0.00 55 1012.4
20260505004555 46 37 10.4 16.5 0.00 0.00 0.00 54 1012.3
20260505003034 47 55 7.8 13.0 0.00 0.00 0.00 53 1012.1
20260505001536 47 75 8.7 13.9 0.00 0.00 0.00 53 1011.9
20260505000036 48 18 8.7 14.8 0.00 0.00 0.00 52 1011.6
20260504234532 48 20 7.0 13.9 0.00 0.00 0.00 51 1011.4
20260504233032 49 28 7.0 14.8 0.00 0.00 0.00 51 1011.1
20260504231535 50 46 7.0 13.0 0.00 0.00 0.00 50 1010.9
20260504230031 51 46 6.1 13.0 0.00 0.00 0.00 46 1010.8
20260504224534 51 71 7.0 14.8 0.00 0.00 0.00 46 1010.7
20260504223028 51 34 5.2 13.0 0.00 0.00 0.00 45 1010.6
20260504221535 50 29 5.2 14.8 0.00 0.00 0.00 46 1010.6
20260504220024 51 36 7.8 13.0 0.00 0.00 0.00 43 1010.8
20260504214523 50 58 7.0 11.3 0.00 0.00 0.00 44 1010.8
20260504213035 50 88 7.0 9.6 0.00 0.00 0.00 44 1010.7
20260504211520 50 54 4.3 13.0 0.00 0.00 0.00 50 1010.7
20260504210018 50 52 4.3 11.3 0.00 0.00 0.00 47 1010.7
20260504204516 50 54 4.3 12.2 0.00 0.00 0.00 49 1010.8
20260504203016 50 37 6.1 12.2 0.00 0.00 0.00 48 1010.7
20260504201515 49 23 4.3 8.7 0.00 0.00 0.00 49 1010.8
20260504200015 48 40 5.2 9.6 0.00 0.00 0.00 49 1010.8
20260504194518 48 56 7.8 13.9 0.00 0.00 0.00 50 1010.7
20260504193016 49 47 7.8 10.4 0.00 0.00 0.00 50 1010.8
20260504191510 48 40 7.0 13.0 0.00 0.00 0.00 53 1010.9
20260504190014 48 34 7.0 12.2 0.00 0.00 0.00 51 1010.7
20260504184526 48 68 5.2 12.2 0.00 0.00 0.00 52 1010.8
20260504183007 49 31 7.0 12.2 0.00 0.00 0.00 50 1010.9
20260504181507 49 26 6.1 13.0 0.00 0.00 0.00 49 1011.0
20260504180005 49 7 7.0 10.4 0.00 0.00 0.00 49 1010.9
20260504174504 49 23 4.3 13.0 0.00 0.00 0.00 50 1011.0
20260504173009 48 52 5.2 11.3 0.00 0.00 0.00 49 1011.1
20260504171501 48 30 4.3 13.0 0.00 0.00 0.00 49 1011.1